Regional Weather Roundup
Issued by NWS

Home | Current Version | Previous Version | Text Only | Print | Product List | Glossary Off
Versions: 1 2 3 4 5 6 7 8 9 10 11 12 13 14 15 16 17 18 19 20 21 22 23 24 25 26 27 28 29 30 31 32 33 34 35 36 37 38 39 40 41 42 43 44 45 46 47 48 49 50

000
ASUS45 KCYS 221610
RWRWY

WYOMING REGIONAL WEATHER ROUNDUP
NATIONAL WEATHER SERVICE CHEYENNE WY
1000 AM MDT FRI MAY 22 2015

NOTE:  "FAIR" INDICATES FEW OR NO CLOUDS BELOW 12,000 FEET
WITH NO SIGNIFICANT WEATHER AND/OR OBSTRUCTIONS TO VISIBILITY.

WYZ001-221700-
YELLOWSTONE NATIONAL PARK

CITY           SKY/WX    TMP DP  RH WIND       PRES   REMARKS
LK YELLOWSTONE   N/A     43  35  73 VRB3      30.05S
W YELLOWSTONE  NOT AVBL

$$
WYZ002>013-054>058-071-098>099-221700-
NORTHERN WYOMING

CITY           SKY/WX    TMP DP  RH WIND       PRES   REMARKS
JACKSON        PTSUNNY   52  43  71 CALM      30.00S
CODY           CLOUDY    54  46  76 NE7       29.97F
GREYBULL       FAIR      58  46  64 CALM      29.94S
WORLAND        PTSUNNY   55  46  71 CALM      29.94S
SHERIDAN       FAIR      54  45  71 CALM      29.97S
BUFFALO        CLOUDY    52  44  74 SE16      30.00R
GILLETTE       PTSUNNY   56  44  64 SE22G29   30.02S
HULETT         CLOUDY    57  43  58 S6        30.06S
NEWCASTLE      FAIR      54  41  62 SE22G31   30.07S

$$
WYZ014>020-022>026-101>103-221700-
CENTRAL WYOMING

CITY           SKY/WX    TMP DP  RH WIND       PRES   REMARKS
BIG PINEY      FAIR      50  39  66 NE7       30.01F
PINEDALE       PTSUNNY   48  39  71 W5        30.01F
DUBOIS         CLOUDY    46  39  76 E6        30.01F
LANDER         CLOUDY    51  42  71 NW7       29.97F
RIVERTON       LGT RAIN  48  44  86 NE6       30.00S
CASPER         CLOUDY    49  44  83 CALM      29.99S
DOUGLAS        CLOUDY    49  43  80 SE18      30.03S

$$
WYZ021-027>030-104>119-221700-
SOUTHERN WYOMING

CITY           SKY/WX    TMP DP  RH WIND       PRES   REMARKS
EVANSTON       FAIR      45  39  79 E3        30.00S
KEMMERER       CLOUDY    46  39  76 CALM      30.01S
FORT BRIDGER   CLOUDY    46  46 100 CALM      30.03S
ROCK SPRINGS   CLOUDY    48  40  73 E6        30.00S
DIXON          DRIZZLE   45  43  91 SW12      30.05R
RAWLINS        CLOUDY    47  41  80 CALM      30.00S
SARATOGA       CLOUDY    46  41  81 SE6       30.02S
LARAMIE        CLOUDY    43  38  82 SE17      30.01F
CHEYENNE       LGT RAIN  43  41  93 SE10      30.04S FOG
TORRINGTON     LGT RAIN  48  46  93 MISG      30.05S
PINE BLUFFS    LGT RAIN  45  43  93 SE13G22   30.06S

$$



USA.gov is the U.S. government's official web portal to all federal, state and local government web resources and services.